This is the latest recevied weather packets stored in our database for station/object KF4PPJ. If no packets are shown the sender has not sent any weather packets the latest 1 day(s).
| Time | Temp. | Humidity | Pressure | Rain* | Wind** | Luminosity | Snow |
|---|---|---|---|---|---|---|---|
| 1778100010 | 13.33° C | 76% | 1023.7 hPa | 0 mm | - | 159 W/m² | - |
| 1778099096 | 13.33° C | 76% | 1023.7 hPa | 0 mm | - | 151 W/m² | - |
| 1778098792 | 13.33° C | 77% | 1023.7 hPa | 0 mm | - | 151 W/m² | - |
| 1778098490 | 13.33° C | 77% | 1023.6 hPa | 0 mm | - | 140 W/m² | - |
| 1778096367 | 12.78° C | 79% | 1023.4 hPa | 0 mm | - | 130 W/m² | - |
| 1778093032 | 12.22° C | 83% | 1023.5 hPa | 0 mm | - | 111 W/m² | - |
| 1778092122 | 12.22° C | 85% | 1023.4 hPa | 0 mm | - | 105 W/m² | - |
| 1778089698 | 11.67° C | 87% | 1023.2 hPa | 0 mm | - | 102 W/m² | - |
| 1778087275 | 11.67° C | 91% | 1023.1 hPa | 0 mm | - | 78 W/m² | - |
| 1778086367 | 11.67° C | 92% | 1023.3 hPa | 0 mm | - | 88 W/m² | - |
| 1778082730 | 11.11° C | 95% | 1022.7 hPa | 0 mm | - | 75 W/m² | - |
| 1778079168 | 11.11° C | 94% | 1022.8 hPa | 0 mm | - | 29 W/m² | - |
| 1778078260 | 11.11° C | 93% | 1022.5 hPa | 0 mm | - | 21 W/m² | - |
| 1778075536 | 11.67° C | 91% | 1022.6 hPa | 0 mm | - | 9 W/m² | - |
| 1778074929 | 11.67° C | 91% | 1022.4 hPa | 0 mm | - | 6 W/m² | - |
| 1778074627 | 11.67° C | 91% | 1022.3 hPa | 0 mm | - | 7 W/m² | - |
| 1778074323 | 11.67° C | 91% | 1022.2 hPa | 0 mm | - | 8 W/m² | - |
| 1778073111 | 11.67° C | 90% | 1021.8 hPa | 0 mm | - | 6 W/m² | - |
| 1778071901 | 11.67° C | 90% | 1021.8 hPa | 0 mm | - | 0 W/m² | - |
| 1778069480 | 11.67° C | 89% | 1021.5 hPa | 0 mm | - | 0 W/m² | - |
| 1778067968 | 11.67° C | 89% | 1021.5 hPa | 0 mm | - | 0 W/m² | - |
| 1778067061 | 11.67° C | 88% | 1021.3 hPa | 0 mm | - | 0 W/m² | - |
| 1778066455 | 11.67° C | 88% | 1021.3 hPa | 0 mm | - | 0 W/m² | - |
| 1778066153 | 11.67° C | 88% | 1021.5 hPa | 0 mm | - | 0 W/m² | - |
| 1778065850 | 11.67° C | 88% | 1021.4 hPa | 0 mm | - | 0 W/m² | - |
* Rain latest hour (hover to see other rain measurements)
** Current wind speed in m/s (hover to see current wind gust speed)